STARLINK-3126 (49444 NORAD) Tracking and Keplerian Element Data

This shows tracking and keplerian element data for the satellite.

Feedback or suggestion? Click here.




ElementValue
Catalog49444
NameSTARLINK-3126
Epoch Orbit479
Epoch Day339.91667824
Epoch Year2021
RAAN22.2283
Inclination53.2187
Eccentricity0.0001886
Argument of Perigee30.6543
Mean Anonmoly42.1235
Mean Motion15.73186378
Decay Rate0.00046227
L11 49444U 21104AN 21339.91667824 .00046227 00000+0 33216-3 0 9992
L22 49444 53.2187 22.2283 0001886 30.6543 42.1235 15.73186378 4792

Live tracking and technical data element details for STARLINK-3126 (NORAD 49444). STARLINK-3126 can be tracked NOW for your location showing map with azimuth and elevation plus other details from your city location.

Track the satellite on the map from your city or location and see movement details for azimuth, elevation, latitude, longitude, range, height, and movement on the map or in text.







IsCatalogInMostPopularTable: catalog: 49444, numindb: 2
Update: records affected: 1



GetName: 49444 STARLINK-3126

Hit Count: updated at: Wed, 08 Dec 2021 16:27:50 GMT